Tracking 35274 objects as of 11-Sep-2026
HD Live streaming from Space Station
objects crossing your sky now

DELTA 1 DEB


DELTA 1 DEB is no longer on orbit


NORAD ID: 7943
Int'l Code: 1972-058CJ
Launch date: July 23, 1972
Source: United States (US)
Launch site: AIR FORCE WESTERN TEST RANGE (AFWTR)
Decay date: 2003-04-01

Note: This is SATELLITE DEBRIS
Your satellite tracking list
Your tracking list is empty




NASA's NSSDC Master Catalog

Two Line Element Set (TLE):
1 07943U 72058CJ  03091.74524592  .11330661  31584-5  16922-2 0  9995
2 07943 098.2703 349.4423 0007588 168.7660 191.3693 16.34368784632446
Source of the keplerian elements: AFSPC